[[{"header":{"parameterUnit":"m.s-1","parameterCategory":2,"la1":30.2991,"la2":30.254,"lo1":-89.0895,"lo2":-89.0444,"dy":0.0017,"dx":0.0017,"nx":28,"ny":28,"refTime":"2023-07-21T21:00:00:Z","depth":"0","parameterNumber":2,"parameterNumberName":"U-component_of_CURRENTS"},"data":[0,0,0,0,0,0,0,0,0,0,0,0,0,0,0,0,0,0,0,0,0,0,0,0,0,0,0,0,0,0,0,0,0,0,0,0,0,0,0,0,0,0,0,0,0,0,0,0,0,0,0,0,0,0,0,0,0,0,0.4432,0.4432,0,0.4411,0.4411,0.4411,0.4385,0.4385,0.4384,0.4384,0.4435,0.4436,0.4438,0,0,0,0,0,0,0,0,0,0,0,0,0,0.4376,0.4378,0.4432,0.4432,0.4432,0.4411,0.4411,0.4411,0.4385,0.4385,0.4384,0.4383,0.4434,0.4436,0.4438,0,0,0,0,0,0,0,0,0,0,0,0,0,0.4384,0.4378,0.4432,0.4415,0.4413,0.4411,0.4411,0.4411,0.4385,0.4385,0.4384,0.4383,0.4433,0.4436,0.4439,0.4472,0,0,0.4447,0.4448,0,0,0,0,0,0,0,0,0.4384,0.4386,0.4418,0.4416,0.4414,0.4399,0.441,0.4434,0.4386,0.4398,0.4384,0.4383,0.4429,0.4432,0.4431,0.4474,0.4477,0.4448,0.4449,0.445,0.4451,0,0,0,0,0,0,0,0.4383,0.4387,0.4425,0.4418,0.4415,0.4383,0.4384,0.4414,0.4421,0.4396,0.4394,0.439,0.4429,0.4428,0.4432,0.4477,0.4447,0.445,0.4452,0.4453,0.46,0.4602,0,0,0,0,0,0,0.4388,0.4387,0.4426,0.4425,0.4395,0.4385,0.4386,0.4406,0.4419,0.4419,0.4391,0.4389,0.4424,0.4429,0.4434,0.4484,0.445,0.4453,0.4455,0.4598,0.4601,0.4603,0,0,0,0,0,0,0.4388,0.4393,0.4427,0.4402,0.4404,0.4387,0.4409,0.4406,0.4406,0.4413,0.4415,0.4394,0.4423,0.443,0.4484,0.4485,0.4454,0.4457,0.4595,0.4599,0.4602,0.4578,0,0,0,0,0,0,0.4387,0.4394,0.4413,0.4404,0.4406,0.445,0.441,0.4406,0.4403,0.4401,0.4417,0.442,0.4423,0.448,0.4486,0.4488,0.4459,0.4592,0.4597,0.4601,0.4576,0.458,0.4583,0,0,0,0,0,0.4385,0.4434,0.4415,0.4419,0.4433,0.4452,0.4451,0.4435,0.4405,0.4427,0.4436,0.4419,0.4511,0.4484,0.4491,0.4494,0.459,0.4595,0.46,0.4574,0.4579,0.4583,0,0,0,0,0,0,0.4412,0.4435,0.4415,0.4464,0.446,0.4447,0.4462,0.444,0.446,0.4454,0.4452,0.4459,0.4516,0.452,0.4491,0.4556,0.4547,0.4554,0.4525,0.453,0.4533,0.4499,0.4461,0,0,0,0,0,0.4426,0.4465,0.4467,0.4494,0.4502,0.4476,0.4478,0.4465,0.4474,0.4479,0.4483,0.4502,0.4543,0.4547,0.4595,0.4619,0.4652,0.4629,0.4633,0.4636,0.4618,0.47,0.4709,0.462,0.4619,0.4619,0,0,0.4426,0.4451,0.4463,0.4501,0.4492,0.4494,0.4477,0.4489,0.4472,0.4486,0.4485,0.4532,0.4565,0.4605,0.4626,0.4599,0.4685,0.4642,0.4644,0.4624,0.4706,0.4715,0.4722,0.4623,0.4622,0.4622,0,0,0.4462,0.4484,0.4529,0.4532,0.454,0.452,0.4525,0.4519,0.451,0.453,0.4539,0.458,0.4625,0.4635,0.4648,0.4703,0.4726,0.4729,0.4684,0.4765,0.4772,0.4778,0.4843,0.4856,0.47,0.47,0.47,0,0.4438,0.45,0.4538,0.457,0.4538,0.4529,0.4518,0.4524,0.4528,0.4518,0.4536,0.4604,0.463,0.4655,0.4672,0.4704,0.4761,0.4653,0.4766,0.4773,0.478,0.4845,0.4859,0.4699,0.4699,0.4699,0.4699,0,0.4498,0.4528,0.4552,0.4568,0.4559,0.455,0.454,0.4543,0.4523,0.4514,0.456,0.4614,0.4641,0.4666,0.4678,0.4732,0.4764,0.4783,0.4741,0.4786,0.4854,0.4869,0.4699,0.4699,0.4699,0.4699,0,0,0.4421,0.456,0.4553,0.4541,0.4536,0.4519,0.4514,0.4488,0.4463,0.4511,0.4494,0.4572,0.4602,0.4622,0.4658,0.4705,0.4805,0.4753,0.4758,0.4793,0.4992,0.4821,0.4821,0.4856,0.4859,0.486,0.5023,0,0.4405,0.4493,0.4534,0.45,0.4504,0.4478,0.4456,0.4439,0.4441,0.4446,0.4505,0.4539,0.4585,0.4609,0.467,0.4781,0.4843,0.4759,0.4963,0.4968,0.479,0.4831,0.4558,0.4662,0.5037,0.504,0.5041,0,0.4402,0.4451,0.4475,0.4453,0.4441,0.4409,0.4328,0.432,0.4346,0.4361,0.4415,0.4479,0.4558,0.4603,0.4798,0.4753,0.4869,0.4952,0.4961,0.4809,0.4822,0.4679,0.4675,0.4479,0.5064,0.5062,0.5061,0,0.4319,0.4365,0.4376,0.4366,0.437,0.433,0.43,0.4291,0.4259,0.4322,0.4317,0.4449,0.4497,0.468,0.4831,0.4848,0.504,0.5089,0.5046,0.5037,0.4841,0.4808,0.4638,0.5238,0.5238,0.5237,0.5237,0,0.4274,0.4253,0.4343,0.4331,0.4252,0.4273,0.4192,0.419,0.4196,0.4149,0.4275,0.4278,0.4524,0.4647,0.4829,0.4949,0.505,0.5034,0.506,0.4826,0.4791,0.4639,0.466,0.5243,0.5242,0.5241,0.524,0,0.4196,0.428,0.4249,0.4252,0.4229,0.4168,0.4102,0.4055,0.4087,0.4037,0.4057,0.4172,0.4327,0.4537,0.481,0.489,0.4899,0.5085,0.477,0.4753,0.4494,0.4528,0.4298,0.4211,0.5078,0.5075,0.5072,0,0.4178,0.4186,0.4166,0.4118,0.4109,0.4045,0.398,0.399,0.3944,0.3953,0.3915,0.4044,0.4086,0.4381,0.4595,0.4847,0.475,0.469,0.4649,0.4407,0.447,0.4315,0.4251,0.4419,0.4411,0.4405,0.4399,0,0.4088,0.4096,0.4087,0.3986,0.391,0.3836,0.3767,0.3722,0.3722,0.3691,0.3666,0.3709,0.3937,0.4009,0.4273,0.4435,0.4379,0.4559,0.4404,0.3994,0.3723,0.3673,0.4393,0.4341,0.4347,0.4351,0.4354,0.4357,0.399,0.3946,0.3925,0.3802,0.3719,0.3609,0.3506,0.3464,0.3379,0.3264,0.3399,0.3343,0.3452,0.379,0.3879,0.3833,0.4041,0.3761,0.385,0.373,0.3512,0.4066,0.3969,0.3972,0.3975,0.3978,0.3981,0,0.3817,0.3804,0.3715,0.3568,0.3414,0.3433,0.3317,0.3195,0.3051,0.3014,0.2958,0.2903,0.2915,0.3039,0.3148,0.3101,0.3038,0.306,0.2795,0.2806,0.3364,0.319,0.2796,0.2796,0.2796,0.2797,0.2797,0.2797,0.3748,0.363,0.3581,0.3297,0.3191,0.2946,0.287,0.2725,0.2656,0.2449,0.2344,0.2364,0.2517,0.2536,0.2451,0.2459,0.2337,0.222,0.2358,0.2747,0.2817,0.2884,0.2712,0.2224,0.2224,0.1548,0.1543,0.154]},{"header":{"parameterUnit":"m.s-1","parameterCategory":2,"la1":30.2991,"la2":30.254,"lo1":-89.0895,"lo2":-89.0444,"dy":0.0017,"dx":0.0017,"nx":28,"ny":28,"refTime":"2023-07-21T21:00:00:Z","depth":"0","parameterNumber":3,"parameterNumberName":"V-component_of_CURRENTS"},"data":[0,0,0,0,0,0,0,0,0,0,0,0,0,0,0,0,0,0,0,0,0,0,0,0,0,0,0,0,0,0,0,0,0,0,0,0,0,0,0,0,0,0,0,0,0,0,0,0,0,0,0,0,0,0,0,0,0,0,0.0756,0.0756,0,0.0802,0.0803,0.0804,0.0817,0.0816,0.0815,0.0814,0.0874,0.0876,0.0878,0,0,0,0,0,0,0,0,0,0,0,0,0,0.0786,0.0785,0.0756,0.0756,0.0756,0.0802,0.0803,0.0805,0.0817,0.0816,0.0815,0.0814,0.0873,0.0876,0.0879,0,0,0,0,0,0,0,0,0,0,0,0,0,0.0801,0.0785,0.0756,0.0764,0.0764,0.0802,0.0803,0.0805,0.0817,0.0816,0.0815,0.0814,0.0872,0.0876,0.0879,0.0924,0,0,0.089,0.0891,0,0,0,0,0,0,0,0,0.08,0.0801,0.0762,0.0763,0.0764,0.0798,0.0835,0.0843,0.0817,0.0803,0.0814,0.0813,0.0847,0.0852,0.0871,0.0927,0.0929,0.089,0.0892,0.0894,0.0895,0,0,0,0,0,0,0,0.0799,0.08,0.078,0.0762,0.0763,0.0801,0.0802,0.0838,0.0836,0.0804,0.0804,0.0801,0.0848,0.0868,0.0873,0.093,0.089,0.0893,0.0895,0.0896,0.1048,0.105,0,0,0,0,0,0,0.0778,0.0798,0.0778,0.0781,0.0773,0.0801,0.0802,0.0793,0.0835,0.0838,0.0801,0.0801,0.0863,0.0869,0.0875,0.0959,0.0894,0.0897,0.0899,0.1046,0.1049,0.1051,0,0,0,0,0,0,0.0778,0.0775,0.0776,0.0787,0.0789,0.08,0.0791,0.0794,0.0813,0.0832,0.0836,0.0816,0.0862,0.087,0.0943,0.0959,0.0898,0.0901,0.1044,0.1047,0.105,0.1108,0,0,0,0,0,0,0.0779,0.0775,0.078,0.0785,0.0787,0.081,0.0791,0.0796,0.081,0.081,0.0846,0.085,0.0862,0.0938,0.0946,0.0963,0.0904,0.1042,0.1045,0.1049,0.1103,0.1112,0.112,0,0,0,0,0,0.078,0.079,0.078,0.0778,0.0786,0.0811,0.0818,0.0826,0.0812,0.0836,0.0875,0.0849,0.0965,0.0944,0.0953,0.0971,0.104,0.1044,0.1049,0.11,0.1111,0.112,0,0,0,0,0,0,0.0804,0.0791,0.0781,0.0785,0.0799,0.0811,0.0835,0.083,0.0879,0.0879,0.0894,0.0904,0.0971,0.097,0.0946,0.1025,0.099,0.0996,0.1025,0.1036,0.1044,0.1037,0.0907,0,0,0,0,0,0.0808,0.0814,0.0808,0.0814,0.0821,0.0827,0.0841,0.0841,0.0871,0.089,0.0915,0.0947,0.0998,0.1016,0.1059,0.111,0.1094,0.1122,0.113,0.1137,0.1139,0.1135,0.1143,0.1065,0.1065,0.1065,0,0,0.0811,0.0812,0.0809,0.0821,0.0832,0.0869,0.0836,0.0855,0.0896,0.0891,0.0965,0.0986,0.1023,0.1089,0.1114,0.1088,0.1156,0.1143,0.1148,0.1147,0.1141,0.1148,0.1154,0.1068,0.1068,0.1067,0,0,0.0842,0.0828,0.0852,0.0879,0.0896,0.09,0.0903,0.0919,0.0939,0.1005,0.1016,0.1048,0.1121,0.1145,0.1169,0.1246,0.1208,0.1252,0.128,0.1277,0.1283,0.1287,0.1291,0.1295,0.1245,0.1245,0.1245,0,0.0842,0.0872,0.0867,0.0918,0.0936,0.0915,0.0953,0.0988,0.1028,0.1055,0.1036,0.1135,0.1146,0.1228,0.125,0.1261,0.1259,0.1238,0.1286,0.129,0.1293,0.1295,0.13,0.1248,0.1248,0.1247,0.1247,0,0.0905,0.0937,0.0959,0.1007,0.1036,0.1059,0.1088,0.1124,0.1124,0.1147,0.1216,0.1234,0.1281,0.1285,0.1294,0.1335,0.1326,0.1303,0.1254,0.1304,0.1304,0.1307,0.1253,0.1252,0.1251,0.125,0,0,0.0845,0.097,0.0979,0.1018,0.1074,0.1094,0.1174,0.1223,0.1267,0.1297,0.1351,0.1405,0.1382,0.1406,0.1401,0.1386,0.1402,0.1355,0.1353,0.1347,0.1407,0.1354,0.1352,0.1387,0.1388,0.1388,0.1401,0,0.0876,0.0994,0.1041,0.1126,0.1168,0.1199,0.1271,0.1325,0.1357,0.1416,0.1423,0.1475,0.1442,0.1447,0.1438,0.1424,0.1412,0.1402,0.1369,0.1368,0.1304,0.1354,0.1327,0.1331,0.1403,0.1404,0.1404,0,0.0898,0.0976,0.1077,0.1176,0.1194,0.1243,0.1319,0.1384,0.1476,0.1501,0.1546,0.1561,0.1586,0.152,0.1515,0.1515,0.1466,0.1432,0.1431,0.1359,0.1319,0.1291,0.1333,0.1209,0.1409,0.1408,0.1408,0,0.0845,0.0979,0.1055,0.1096,0.1218,0.1257,0.1305,0.1402,0.1453,0.1547,0.158,0.1629,0.1632,0.1603,0.155,0.1536,0.1518,0.1488,0.1398,0.1394,0.1352,0.1343,0.1257,0.146,0.146,0.146,0.146,0,0.0842,0.0899,0.1039,0.1082,0.1155,0.1236,0.1308,0.1378,0.1466,0.1529,0.1603,0.1651,0.1645,0.1647,0.1589,0.1515,0.1552,0.1414,0.1395,0.1374,0.1367,0.1239,0.1232,0.146,0.146,0.146,0.146,0,0.0784,0.0885,0.0965,0.1096,0.1136,0.1183,0.1296,0.1357,0.144,0.1522,0.155,0.1661,0.1676,0.1661,0.1615,0.1548,0.1449,0.144,0.1422,0.1398,0.1185,0.1185,0.1157,0.1179,0.1356,0.1355,0.1354,0,0.0786,0.0825,0.0954,0.1008,0.1067,0.1154,0.1222,0.1327,0.1389,0.1524,0.156,0.1626,0.1682,0.1635,0.1545,0.1462,0.1406,0.1351,0.1301,0.1174,0.116,0.1171,0.1195,0.1283,0.1282,0.128,0.1279,0,0.0775,0.0804,0.0881,0.0969,0.1047,0.1145,0.124,0.1286,0.1408,0.1483,0.1585,0.1643,0.1627,0.1558,0.1451,0.1394,0.1313,0.1318,0.1196,0.1107,0.1108,0.1119,0.1278,0.1268,0.1269,0.127,0.1271,0.1271,0.0764,0.0797,0.088,0.0958,0.1037,0.1138,0.1205,0.1303,0.1404,0.1514,0.1568,0.1648,0.1538,0.1413,0.1316,0.1107,0.1209,0.1018,0.1035,0.1061,0.1058,0.1188,0.114,0.114,0.114,0.1141,0.1141,0,0.078,0.0822,0.0878,0.0981,0.1035,0.1098,0.1226,0.1285,0.1393,0.1496,0.1567,0.1545,0.1374,0.1226,0.0962,0.0826,0.0853,0.0768,0.0771,0.0818,0.0918,0.0882,0.0763,0.0763,0.0763,0.0763,0.0763,0.0763,0.0811,0.0859,0.0881,0.097,0.1029,0.1115,0.1193,0.127,0.1355,0.1452,0.1504,0.1566,0.1527,0.0944,0.062,0.0577,0.056,0.0542,0.0569,0.0581,0.0605,0.0627,0.0584,0.0405,0.0405,0.0468,0.0468,0.0468]}],[{"header":{"parameterUnit":"m.s-1","parameterCategory":2,"la1":30.2991,"la2":30.254,"lo1":-89.0895,"lo2":-89.0444,"dy":0.0017,"dx":0.0017,"nx":28,"ny":28,"refTime":"2023-07-21T21:00:00:Z","depth":"2","parameterNumber":2,"parameterNumberName":"U-component_of_CURRENTS"},"data":[0,0,0,0,0,0,0,0,0,0,0,0,0,0,0,0,0,0,0,0,0,0,0,0,0,0,0,0,0,0,0,0,0,0,0,0,0,0,0,0,0,0,0,0,0,0,0,0,0,0,0,0,0,0,0,0,0,0,0.2816,0.2818,0,0.2865,0.2864,0.2863,0.2913,0.2916,0.2918,0.292,0.3218,0.3223,0.3229,0,0,0,0,0,0,0,0,0,0,0,0,0,0.2606,0.2609,0.2816,0.2818,0.282,0.2865,0.2864,0.2863,0.2913,0.2916,0.2918,0.2921,0.3216,0.3223,0.323,0,0,0,0,0,0,0,0,0,0,0,0,0,0.2664,0.261,0.2815,0.2863,0.2869,0.2865,0.2864,0.2863,0.2912,0.2916,0.2919,0.2922,0.3214,0.3222,0.3231,0.3216,0,0,0.3257,0.3261,0,0,0,0,0,0,0,0,0.2661,0.267,0.2854,0.286,0.2867,0.2902,0.29,0.3,0.2911,0.2877,0.292,0.2924,0.3144,0.3158,0.3132,0.323,0.3243,0.3258,0.3263,0.3267,0.327,0,0,0,0,0,0,0,0.2657,0.2667,0.2818,0.2856,0.2865,0.2829,0.284,0.2916,0.2982,0.2881,0.2889,0.2921,0.3147,0.3123,0.314,0.3247,0.3258,0.3266,0.3271,0.3274,0.36,0.3604,0,0,0,0,0,0,0.2691,0.2664,0.2816,0.2821,0.279,0.2832,0.2844,0.2873,0.2976,0.2998,0.2918,0.2923,0.3106,0.313,0.3152,0.3261,0.3267,0.3275,0.328,0.3597,0.3601,0.3605,0,0,0,0,0,0,0.2686,0.2704,0.2815,0.2757,0.2772,0.2835,0.2865,0.2873,0.2902,0.3005,0.3029,0.2949,0.311,0.314,0.3196,0.327,0.3279,0.3287,0.3593,0.3598,0.3603,0.3405,0,0,0,0,0,0,0.2679,0.2701,0.2717,0.276,0.2777,0.2818,0.2864,0.2872,0.2922,0.293,0.3039,0.3066,0.3115,0.3182,0.3205,0.3282,0.3294,0.3588,0.3595,0.3601,0.3407,0.3403,0.3399,0,0,0,0,0,0.2671,0.2635,0.2717,0.2736,0.2803,0.2819,0.282,0.2865,0.2921,0.2907,0.2961,0.3066,0.3246,0.3186,0.3214,0.3296,0.3585,0.3593,0.3601,0.3409,0.3404,0.3399,0,0,0,0,0,0,0.2522,0.2641,0.273,0.2732,0.2801,0.2835,0.2808,0.2885,0.2909,0.2936,0.3032,0.3059,0.3151,0.3257,0.3191,0.3426,0.3467,0.348,0.3313,0.3309,0.3305,0.3289,0.3301,0,0,0,0,0,0.2517,0.2552,0.2659,0.2674,0.2691,0.2774,0.279,0.2854,0.2896,0.2912,0.3016,0.3133,0.3195,0.327,0.3346,0.3439,0.3436,0.3547,0.3542,0.3537,0.3553,0.3623,0.3622,0.363,0.363,0.363,0,0,0.2503,0.2545,0.2591,0.2652,0.2687,0.2697,0.2783,0.2817,0.2848,0.2947,0.3006,0.3099,0.3209,0.3285,0.3353,0.3391,0.3496,0.3547,0.354,0.356,0.363,0.3628,0.3626,0.3635,0.3634,0.3633,0,0,0.2378,0.2488,0.2443,0.2518,0.2599,0.2648,0.268,0.2778,0.2824,0.2902,0.2976,0.3067,0.3241,0.3282,0.3331,0.3366,0.3446,0.3501,0.3486,0.355,0.3547,0.3546,0.3334,0.3316,0.3529,0.3529,0.3529,0,0.2359,0.2347,0.2432,0.2406,0.2498,0.2631,0.2648,0.2669,0.2801,0.285,0.2924,0.3136,0.3214,0.3266,0.3295,0.3346,0.3347,0.3461,0.3532,0.3533,0.3534,0.3321,0.3303,0.352,0.3521,0.3522,0.3523,0,0.2198,0.2249,0.2218,0.2276,0.2346,0.2402,0.251,0.2554,0.2685,0.2785,0.2917,0.3005,0.3147,0.3221,0.3263,0.3364,0.3327,0.3472,0.3507,0.3519,0.3293,0.3278,0.3508,0.3511,0.3514,0.3516,0,0,0.2111,0.2112,0.2151,0.217,0.2344,0.2364,0.2399,0.2485,0.25,0.2693,0.2752,0.2895,0.3035,0.3103,0.3209,0.3303,0.3215,0.3433,0.344,0.3149,0.3195,0.3029,0.2994,0.3429,0.3431,0.3432,0.2952,0,0.2016,0.1938,0.2016,0.2052,0.205,0.2231,0.2243,0.2356,0.248,0.2547,0.2707,0.2825,0.2962,0.306,0.3155,0.3247,0.321,0.3321,0.3297,0.3289,0.3088,0.2988,0.292,0.2487,0.2937,0.2934,0.2933,0,0.1922,0.1871,0.1881,0.1943,0.1965,0.2025,0.2141,0.2188,0.2302,0.2412,0.2582,0.272,0.283,0.2989,0.3054,0.3155,0.3151,0.3197,0.3183,0.3116,0.3106,0.2604,0.2443,0.2908,0.291,0.2912,0.2913,0,0.1855,0.1841,0.1848,0.1911,0.1951,0.1997,0.2064,0.2191,0.2286,0.2386,0.25,0.2606,0.272,0.2812,0.2922,0.3015,0.2963,0.3062,0.2823,0.2797,0.2775,0.275,0.3051,0.3052,0.3053,0.3054,0.3056,0,0.1821,0.1842,0.1808,0.1836,0.1845,0.1939,0.2042,0.2074,0.2237,0.2369,0.2484,0.2578,0.2748,0.2769,0.2818,0.2733,0.2841,0.2747,0.271,0.2682,0.2657,0.3143,0.316,0.3036,0.304,0.3043,0.3047,0,0.1838,0.1833,0.1811,0.1808,0.1839,0.1888,0.212,0.2144,0.2296,0.2464,0.2532,0.2591,0.2589,0.2617,0.2651,0.2568,0.2518,0.2453,0.226,0.2214,0.2264,0.2279,0.2017,0.2008,0.2,0.1994,0.1989,0,0.1785,0.1769,0.1821,0.1862,0.191,0.2014,0.2076,0.2212,0.2302,0.2487,0.2526,0.2548,0.2503,0.2314,0.2199,0.1997,0.23,0.1814,0.2,0.219,0.218,0.2206,0.2229,0.1762,0.1755,0.175,0.1746,0,0.1666,0.1766,0.184,0.192,0.1995,0.2041,0.2161,0.2229,0.2378,0.2461,0.2488,0.2442,0.2222,0.1973,0.1711,0.1639,0.1842,0.1687,0.2009,0.2083,0.1929,0.1927,0.1963,0.1697,0.1702,0.1705,0.1708,0.171,0.1671,0.1731,0.1868,0.196,0.2066,0.2048,0.2101,0.2172,0.2246,0.2341,0.2338,0.2185,0.1987,0.1487,0.1395,0.1302,0.1358,0.1385,0.1411,0.1442,0.1549,0.1399,0.1064,0.1065,0.1066,0.1067,0.1068,0,0.156,0.1698,0.1814,0.1943,0.2035,0.2075,0.2119,0.2091,0.2097,0.2121,0.2125,0.1719,0.147,0.1375,0.109,0.0917,0.1004,0.0994,0.1204,0.1245,0.1284,0.1399,0.0865,0.0865,0.0865,0.0865,0,0,0.1539,0.1627,0.1679,0.1807,0.1943,0.1976,0.1975,0.1917,0.1891,0.1731,0.1633,0.1568,0.1339,0.1138,0.1034,0.0974,0.1147,0.0942,0.1094,0.1392,0.1434,0.1468,0.1682,0,0,0,0,0]},{"header":{"parameterUnit":"m.s-1","parameterCategory":2,"la1":30.2991,"la2":30.254,"lo1":-89.0895,"lo2":-89.0444,"dy":0.0017,"dx":0.0017,"nx":28,"ny":28,"refTime":"2023-07-21T21:00:00:Z","depth":"2","parameterNumber":3,"parameterNumberName":"V-component_of_CURRENTS"},"data":[0,0,0,0,0,0,0,0,0,0,0,0,0,0,0,0,0,0,0,0,0,0,0,0,0,0,0,0,0,0,0,0,0,0,0,0,0,0,0,0,0,0,0,0,0,0,0,0,0,0,0,0,0,0,0,0,0,0,-0.0361,-0.0361,0,-0.0329,-0.0328,-0.0328,-0.0251,-0.025,-0.0248,-0.0247,-0.0103,-0.01,-0.0098,0,0,0,0,0,0,0,0,0,0,0,0,0,-0.0187,-0.0192,-0.0361,-0.0361,-0.0361,-0.0329,-0.0328,-0.0328,-0.0251,-0.0249,-0.0248,-0.0246,-0.0104,-0.0101,-0.0098,0,0,0,0,0,0,0,0,0,0,0,0,0,-0.0218,-0.0193,-0.0362,-0.032,-0.0317,-0.0329,-0.0328,-0.0327,-0.0252,-0.0249,-0.0247,-0.0245,-0.0105,-0.0101,-0.0097,-0.0117,0,0,-0.0086,-0.0084,0,0,0,0,0,0,0,0,-0.0217,-0.0225,-0.0327,-0.0323,-0.0319,-0.0293,-0.0214,-0.0252,-0.0252,-0.0274,-0.0247,-0.0244,-0.0159,-0.0151,-0.0148,-0.011,-0.0104,-0.0086,-0.0083,-0.0082,-0.0081,0,0,0,0,0,0,0,-0.0215,-0.0225,-0.0347,-0.0327,-0.0322,-0.0245,-0.0249,-0.022,-0.0226,-0.0272,-0.0267,-0.0267,-0.0156,-0.0152,-0.0144,-0.0102,-0.0086,-0.0082,-0.008,-0.0079,0.0058,0.0059,0,0,0,0,0,0,-0.0236,-0.0225,-0.0348,-0.0346,-0.0264,-0.0251,-0.0254,-0.0302,-0.0228,-0.0216,-0.0269,-0.0264,-0.016,-0.0149,-0.0139,-0.0078,-0.0082,-0.0078,-0.0076,0.0057,0.0058,0.006,0,0,0,0,0,0,-0.0233,-0.0249,-0.0349,-0.0282,-0.0289,-0.0258,-0.0311,-0.0303,-0.0279,-0.0227,-0.0212,-0.0251,-0.0158,-0.0144,-0.0133,-0.0074,-0.0076,-0.0073,0.0055,0.0057,0.0059,-0.0006,0,0,0,0,0,0,-0.0229,-0.0249,-0.0274,-0.0286,-0.0294,-0.0354,-0.0313,-0.0304,-0.0285,-0.0277,-0.0208,-0.0193,-0.0155,-0.0139,-0.0129,-0.0069,-0.007,0.0053,0.0056,0.0059,-0.0006,-0.0007,-0.0007,0,0,0,0,0,-0.0223,-0.029,-0.0277,-0.0289,-0.0337,-0.0355,-0.0352,-0.0318,-0.0286,-0.0286,-0.0258,-0.0194,-0.0111,-0.0139,-0.0126,-0.0063,0.0052,0.0055,0.0058,-0.0006,-0.0007,-0.0007,0,0,0,0,0,0,-0.0231,-0.0289,-0.0274,-0.0354,-0.0345,-0.0342,-0.0343,-0.0317,-0.0296,-0.0276,-0.0225,-0.0211,-0.0174,-0.0117,-0.0148,-0.001,0.0002,0.0007,-0.005,-0.0051,-0.0052,0.0009,-0.0067,0,0,0,0,0,-0.0246,-0.0307,-0.0323,-0.0377,-0.0378,-0.0353,-0.0348,-0.0323,-0.0312,-0.0298,-0.0253,-0.0191,-0.0155,-0.0108,-0.0077,-0.0023,-0.0019,0.0045,0.0044,0.0043,0.0104,0.0119,0.0124,0.007,0.007,0.007,0,0,-0.0238,-0.03,-0.0314,-0.0379,-0.0369,-0.0347,-0.0345,-0.0342,-0.0296,-0.0287,-0.0224,-0.0219,-0.0153,-0.0103,-0.0069,-0.0041,0.0037,0.0047,0.0045,0.0109,0.0123,0.0128,0.0132,0.0072,0.0072,0.0071,0,0,-0.0275,-0.0331,-0.0372,-0.0361,-0.0367,-0.0352,-0.0349,-0.0332,-0.0298,-0.0266,-0.0242,-0.0227,-0.0138,-0.0098,-0.0059,-0.0041,0.0003,0.0014,0.0094,0.0104,0.0108,0.0113,0.0009,0.0006,0.0049,0.0049,0.0049,0,-0.0235,-0.0321,-0.0375,-0.039,-0.0346,-0.0349,-0.0305,-0.0293,-0.0265,-0.0219,-0.0238,-0.0137,-0.0128,-0.004,-0.003,-0.0041,-0.0047,0.0076,0.0099,0.0105,0.0111,0.0005,0.0002,0.0046,0.0046,0.0047,0.0047,0,-0.029,-0.0308,-0.0331,-0.0338,-0.0308,-0.0286,-0.025,-0.023,-0.0194,-0.0145,-0.0078,-0.0102,-0.0018,-0.0018,-0.0016,0.0065,0.0031,0.0054,0.009,0.0111,-0.0002,-0.0005,0.0042,0.0043,0.0044,0.0045,0,0,-0.0286,-0.0342,-0.0341,-0.0303,-0.0258,-0.0247,-0.0178,-0.0105,-0.0041,-0.002,0.0075,0.0087,0.0093,0.0137,0.0127,0.0151,0.0092,0.0151,0.0152,0.0028,0.0056,0.0127,0.013,0.014,0.0142,0.0143,-0.0084,0,-0.0269,-0.0298,-0.0309,-0.0233,-0.02,-0.0145,-0.008,-0.0007,0.0052,0.012,0.0135,0.0197,0.0153,0.0175,0.0188,0.0137,0.0107,0.0148,0.0079,0.0075,0.0122,0.014,0.0115,-0.0072,-0.0086,-0.0087,-0.0087,0,-0.0295,-0.0304,-0.0251,-0.0166,-0.0142,-0.009,0.0041,0.0099,0.0201,0.0257,0.0334,0.0348,0.0369,0.0317,0.025,0.0293,0.0188,0.0125,0.0114,0.0237,0.0151,-0.0067,-0.0076,-0.0091,-0.0091,-0.009,-0.009,0,-0.0289,-0.0251,-0.0211,-0.0171,-0.0086,-0.0031,0.0025,0.0148,0.0252,0.0345,0.0437,0.0456,0.047,0.0392,0.0289,0.0269,0.021,0.0134,0.0072,0.0067,0.007,0.0068,0.008,0.0081,0.0081,0.0082,0.0082,0,-0.0275,-0.0237,-0.0215,-0.0183,-0.0087,-0.0022,0.0118,0.0169,0.0324,0.0475,0.0501,0.0604,0.0515,0.0489,0.0336,0.0232,0.0227,0.0108,0.0061,0.0035,0.0034,0.0078,0.0081,0.0073,0.0075,0.0077,0.0078,0,-0.0282,-0.0273,-0.022,-0.0138,-0.009,-0.003,0.0177,0.0278,0.0404,0.0594,0.0639,0.0727,0.0684,0.0575,0.0423,0.0305,0.0171,0.0122,0.006,0.0017,-0.0039,-0.0037,-0.0037,-0.0035,-0.0034,-0.0032,-0.0031,0,-0.0297,-0.0281,-0.0202,-0.0116,-0.0071,0.0055,0.0165,0.03,0.0436,0.0677,0.0759,0.0814,0.0858,0.0672,0.0473,0.0219,0.0214,0.0059,0.0041,0.0019,-0.0029,-0.0029,-0.0029,-0.0088,-0.0088,-0.0087,-0.0087,0,-0.0286,-0.0281,-0.0217,-0.0061,0.005,0.0177,0.0332,0.0445,0.0622,0.0788,0.0965,0.1018,0.0887,0.0676,0.0428,0.027,0.0108,0.0062,0.0086,0.0012,-0.0026,-0.0074,-0.0074,-0.0084,-0.0084,-0.0084,-0.0085,-0.0085,-0.0261,-0.0218,-0.0124,0.0026,0.0183,0.0306,0.0424,0.0587,0.078,0.102,0.104,0.1095,0.0854,0.0516,0.0335,0.0161,0.012,-0.0003,-0.0007,-0.0011,0.0093,0.0068,0.0035,0.0036,0.0036,0.0036,0.0036,0,-0.0224,-0.0162,-0.0012,0.0164,0.0352,0.0395,0.0573,0.068,0.0885,0.1021,0.1164,0.0922,0.072,0.0507,0.0211,0.0034,-0.0001,0.0022,-0.0038,-0.0041,-0.0044,0.0057,-0.0011,-0.0011,-0.0011,-0.0011,0,0,-0.0195,-0.0085,-0.0025,0.0272,0.0443,0.0631,0.0722,0.0848,0.0949,0.106,0.108,0.1031,0.0715,0.0478,0.025,0.0126,0.0106,0.013,0.0172,0.0123,0.0123,-0.0068,0.0086,0,0,0,0,0]}],[{"header":{"parameterUnit":"m.s-1","parameterCategory":2,"la1":30.2991,"la2":30.254,"lo1":-89.0895,"lo2":-89.0444,"dy":0.0017,"dx":0.0017,"nx":28,"ny":28,"refTime":"2023-07-21T21:00:00:Z","depth":"4","parameterNumber":2,"parameterNumberName":"U-component_of_CURRENTS"},"data":[0,0,0,0,0,0,0,0,0,0,0,0,0,0,0,0,0,0,0,0,0,0,0,0,0,0,0,0,0,0,0,0,0,0,0,0,0,0,0,0,0,0,0,0,0,0,0,0,0,0,0,0,0,0,0,0,0,0,-0.0453,-0.0454,0,-0.0489,-0.0488,-0.0487,-0.0468,-0.0468,-0.0469,-0.0469,-0.0502,-0.0502,-0.0503,0,0,0,0,0,0,0,0,0,0,0,0,0,-0.0341,-0.0342,-0.0453,-0.0454,-0.0456,-0.0489,-0.0488,-0.0487,-0.0468,-0.0468,-0.0469,-0.0469,-0.0502,-0.0502,-0.0503,0,0,0,0,0,0,0,0,0,0,0,0,0,-0.037,-0.0342,-0.0452,-0.0462,-0.0464,-0.0489,-0.0488,-0.0487,-0.0468,-0.0468,-0.0469,-0.047,-0.0501,-0.0502,-0.0503,-0.0495,0,0,-0.0505,-0.0505,0,0,0,0,0,0,0,0,-0.0368,-0.0372,-0.0459,-0.0461,-0.0464,-0.0488,-0.0461,-0.0494,-0.0468,-0.045,-0.0469,-0.047,-0.0506,-0.0507,-0.049,-0.0496,-0.0498,-0.0505,-0.0506,-0.0506,-0.0506,0,0,0,0,0,0,0,-0.0366,-0.0371,-0.0451,-0.0461,-0.0464,-0.0457,-0.046,-0.0466,-0.0462,-0.0452,-0.0454,-0.0482,-0.0506,-0.049,-0.0491,-0.0498,-0.0505,-0.0506,-0.0506,-0.0506,-0.0492,-0.0491,0,0,0,0,0,0,-0.0393,-0.0369,-0.0451,-0.0454,-0.0434,-0.0459,-0.0462,-0.0467,-0.0463,-0.0467,-0.0482,-0.0482,-0.0488,-0.049,-0.0493,-0.0468,-0.0506,-0.0507,-0.0507,-0.0492,-0.0491,-0.0491,0,0,0,0,0,0,-0.039,-0.0399,-0.0449,-0.0426,-0.0433,-0.0462,-0.0467,-0.0468,-0.0463,-0.0488,-0.0489,-0.048,-0.0489,-0.0492,-0.0476,-0.047,-0.0507,-0.0507,-0.0493,-0.0492,-0.0491,-0.0429,0,0,0,0,0,0,-0.0386,-0.0397,-0.0394,-0.0427,-0.0437,-0.0468,-0.0468,-0.0469,-0.0487,-0.0486,-0.0487,-0.049,-0.0489,-0.0474,-0.0476,-0.0472,-0.0508,-0.0494,-0.0493,-0.0491,-0.0432,-0.0425,-0.042,0,0,0,0,0,-0.0381,-0.0373,-0.0392,-0.0403,-0.0436,-0.047,-0.0471,-0.0484,-0.0486,-0.048,-0.0462,-0.049,-0.0467,-0.0473,-0.0476,-0.0472,-0.0495,-0.0493,-0.0492,-0.0434,-0.0427,-0.042,0,0,0,0,0,0,-0.0332,-0.0374,-0.0394,-0.0402,-0.0443,-0.0472,-0.0481,-0.0488,-0.0467,-0.0462,-0.0469,-0.047,-0.0457,-0.0471,-0.0479,-0.0463,-0.0491,-0.0489,-0.0446,-0.0439,-0.0434,-0.0439,-0.0509,0,0,0,0,0,-0.0324,-0.0319,-0.0379,-0.0388,-0.0417,-0.0449,-0.0463,-0.047,-0.0474,-0.0465,-0.0454,-0.045,-0.0449,-0.045,-0.0445,-0.0435,-0.0457,-0.0437,-0.0431,-0.0426,-0.0432,-0.0448,-0.0444,-0.0484,-0.0484,-0.0485,0,0,-0.0308,-0.0336,-0.0332,-0.0376,-0.0412,-0.0422,-0.0454,-0.0478,-0.0454,-0.0474,-0.0417,-0.0427,-0.0441,-0.0417,-0.0416,-0.043,-0.0423,-0.0424,-0.0419,-0.0429,-0.0446,-0.0442,-0.0438,-0.0483,-0.0483,-0.0484,0,0,-0.0293,-0.031,-0.0314,-0.0342,-0.0401,-0.0404,-0.0417,-0.0437,-0.0419,-0.0384,-0.039,-0.039,-0.0375,-0.0376,-0.0383,-0.0347,-0.039,-0.0358,-0.0333,-0.0347,-0.0344,-0.0342,-0.035,-0.0349,-0.0356,-0.0356,-0.0356,0,-0.0294,-0.0291,-0.0323,-0.0346,-0.0363,-0.0397,-0.0405,-0.0384,-0.0374,-0.036,-0.036,-0.0343,-0.0353,-0.0349,-0.0331,-0.0335,-0.0352,-0.0356,-0.034,-0.0338,-0.0337,-0.0346,-0.0346,-0.0353,-0.0353,-0.0353,-0.0354,0,-0.0271,-0.0287,-0.0302,-0.032,-0.0328,-0.0345,-0.0348,-0.0317,-0.0299,-0.0287,-0.0271,-0.0273,-0.0274,-0.0279,-0.0293,-0.0295,-0.0311,-0.0329,-0.0358,-0.0329,-0.034,-0.0341,-0.0348,-0.0349,-0.035,-0.0351,0,0,-0.0272,-0.0283,-0.03,-0.0302,-0.0316,-0.0323,-0.0276,-0.026,-0.0234,-0.021,-0.019,-0.0186,-0.0209,-0.0219,-0.0245,-0.0261,-0.0257,-0.0291,-0.0293,-0.0299,-0.0287,-0.0254,-0.0253,-0.0275,-0.0275,-0.0275,-0.0293,0,-0.0273,-0.0284,-0.0279,-0.0273,-0.0282,-0.0276,-0.0229,-0.0203,-0.0177,-0.0146,-0.0167,-0.0153,-0.018,-0.0189,-0.0207,-0.0251,-0.026,-0.0251,-0.0315,-0.0317,-0.0291,-0.0252,-0.0276,-0.0294,-0.0294,-0.0294,-0.0295,0,-0.0278,-0.0274,-0.0269,-0.0249,-0.0257,-0.0228,-0.0176,-0.0142,-0.011,-0.0096,-0.0098,-0.0112,-0.0129,-0.0157,-0.0208,-0.0203,-0.024,-0.0272,-0.0273,-0.0269,-0.0286,-0.0333,-0.0297,-0.0297,-0.0296,-0.0296,-0.0296,0,-0.0274,-0.028,-0.026,-0.0258,-0.0226,-0.02,-0.0168,-0.0126,-0.0097,-0.0069,-0.0057,-0.0078,-0.0088,-0.0137,-0.0205,-0.0202,-0.0274,-0.0273,-0.0275,-0.0273,-0.0328,-0.0331,-0.0305,-0.0305,-0.0305,-0.0305,-0.0305,0,-0.0279,-0.0284,-0.0251,-0.0246,-0.0194,-0.0183,-0.0133,-0.01,-0.007,-0.0055,-0.0041,-0.0067,-0.0086,-0.0133,-0.0195,-0.0241,-0.0262,-0.0263,-0.0272,-0.0299,-0.0298,-0.0328,-0.0331,-0.0306,-0.0306,-0.0305,-0.0305,0,-0.0306,-0.029,-0.0272,-0.0225,-0.0198,-0.0164,-0.0108,-0.0079,-0.0046,-0.003,-0.0022,-0.0042,-0.0096,-0.0127,-0.0208,-0.0212,-0.0272,-0.029,-0.0316,-0.0328,-0.0258,-0.0257,-0.0253,-0.0252,-0.0251,-0.0251,-0.025,0,-0.0309,-0.0305,-0.0262,-0.0225,-0.0202,-0.0146,-0.0108,-0.0065,-0.0052,-0.0053,-0.0066,-0.0084,-0.0107,-0.0175,-0.0232,-0.0279,-0.0294,-0.0283,-0.0256,-0.0242,-0.0251,-0.0252,-0.0252,-0.0248,-0.0248,-0.0248,-0.0248,0,-0.0319,-0.0324,-0.0309,-0.0235,-0.0184,-0.0131,-0.0088,-0.0076,-0.0054,-0.0027,-0.0068,-0.008,-0.0133,-0.0184,-0.0197,-0.0263,-0.0258,-0.0273,-0.0274,-0.0249,-0.0236,-0.0246,-0.0248,-0.0245,-0.0245,-0.0245,-0.0245,0,-0.0333,-0.0327,-0.031,-0.0247,-0.018,-0.0133,-0.0105,-0.0087,-0.0061,-0.005,-0.0102,-0.0143,-0.0163,-0.0185,-0.0254,-0.0242,-0.0227,-0.0191,-0.0197,-0.02,-0.0175,-0.015,-0.0133,0,0,0,0,0,-0.0338,-0.0346,-0.0305,-0.023,-0.0174,-0.0138,-0.01,-0.0086,-0.0078,-0.008,-0.0066,-0.0122,-0.0147,-0.021,-0.0187,-0.0253,-0.0246,-0.0225,-0.0211,-0.0227,-0.023,-0.0206,0,0,0,0,0,0,-0.0336,-0.0334,-0.0328,-0.0246,-0.0191,-0.0124,-0.0108,-0.0098,-0.01,-0.0095,-0.0127,-0.0091,-0.015,-0.0154,-0.0184,-0.0189,-0.0167,-0.0239,-0.0238,-0.0225,-0.0228,-0.0231,-0.0207,0,0,0,0,0]},{"header":{"parameterUnit":"m.s-1","parameterCategory":2,"la1":30.2991,"la2":30.254,"lo1":-89.0895,"lo2":-89.0444,"dy":0.0017,"dx":0.0017,"nx":28,"ny":28,"refTime":"2023-07-21T21:00:00:Z","depth":"4","parameterNumber":3,"parameterNumberName":"V-component_of_CURRENTS"},"data":[0,0,0,0,0,0,0,0,0,0,0,0,0,0,0,0,0,0,0,0,0,0,0,0,0,0,0,0,0,0,0,0,0,0,0,0,0,0,0,0,0,0,0,0,0,0,0,0,0,0,0,0,0,0,0,0,0,0,0.0409,0.041,0,0.047,0.0471,0.0471,0.0457,0.0456,0.0455,0.0454,0.0253,0.0249,0.0244,0,0,0,0,0,0,0,0,0,0,0,0,0,0.0369,0.0369,0.0409,0.041,0.0411,0.047,0.0471,0.0472,0.0458,0.0456,0.0455,0.0454,0.0255,0.0249,0.0244,0,0,0,0,0,0,0,0,0,0,0,0,0,0.0402,0.0369,0.0409,0.0412,0.0413,0.047,0.0471,0.0472,0.0458,0.0456,0.0455,0.0453,0.0256,0.025,0.0243,0.0233,0,0,0.0223,0.022,0,0,0,0,0,0,0,0,0.04,0.0403,0.0411,0.0412,0.0414,0.0456,0.0383,0.0379,0.0458,0.0439,0.0454,0.0453,0.0299,0.0289,0.0305,0.0224,0.0215,0.0223,0.0219,0.0216,0.0214,0,0,0,0,0,0,0,0.0398,0.0401,0.0432,0.0412,0.0414,0.0441,0.0443,0.0384,0.0371,0.0441,0.044,0.045,0.0297,0.0312,0.0299,0.0212,0.0223,0.0217,0.0213,0.021,0.0034,0.0033,0,0,0,0,0,0,0.039,0.0399,0.043,0.0434,0.0405,0.0443,0.0445,0.0443,0.0377,0.0368,0.0451,0.0449,0.0324,0.0307,0.0292,0.019,0.0216,0.021,0.0206,0.0035,0.0034,0.0033,0,0,0,0,0,0,0.0389,0.0392,0.0428,0.042,0.0426,0.0444,0.0443,0.0445,0.0444,0.0388,0.0374,0.0447,0.0322,0.0301,0.0231,0.0184,0.0207,0.0201,0.0036,0.0034,0.0033,0.0038,0,0,0,0,0,0,0.0387,0.0391,0.0417,0.0419,0.0426,0.0458,0.0444,0.0447,0.0454,0.0452,0.0379,0.0361,0.0319,0.0241,0.0224,0.0175,0.0195,0.0036,0.0035,0.0034,0.0039,0.0037,0.0036,0,0,0,0,0,0.0386,0.0394,0.0418,0.0423,0.0451,0.0459,0.0465,0.0473,0.0455,0.0464,0.0409,0.0363,0.022,0.0236,0.0216,0.0164,0.0037,0.0035,0.0034,0.004,0.0038,0.0036,0,0,0,0,0,0,0.0392,0.0394,0.0419,0.0432,0.0454,0.0457,0.0489,0.0469,0.0441,0.0427,0.0359,0.0337,0.0259,0.0219,0.0238,0.0112,0.0118,0.0112,0.0129,0.0126,0.0125,0.0111,0.019,0,0,0,0,0,0.0411,0.0428,0.0431,0.0461,0.0472,0.0482,0.0496,0.048,0.045,0.0438,0.0363,0.0295,0.0243,0.0192,0.0141,0.0069,0.0068,0.0023,0.0021,0.002,-0.0003,0.0003,0.0,0.0028,0.0028,0.0028,0,0,0.0423,0.0439,0.0447,0.0468,0.0498,0.0481,0.0486,0.0492,0.0446,0.0414,0.0322,0.0288,0.0229,0.0156,0.0114,0.0108,0.0013,0.0018,0.0018,-0.0006,0.0001,-0.0002,-0.0004,0.0027,0.0027,0.0027,0,0,0.0437,0.0475,0.0481,0.049,0.0517,0.0504,0.0496,0.0464,0.0432,0.0358,0.0323,0.0271,0.0159,0.0119,0.0086,0.0045,0.0018,0.0012,-0.0029,-0.0021,-0.0023,-0.0025,-0.0018,-0.0019,-0.0002,-0.0002,-0.0002,0,0.0452,0.0457,0.049,0.0491,0.0483,0.0499,0.0463,0.0445,0.0375,0.0324,0.0319,0.018,0.0143,0.006,0.005,0.0038,0.0038,-0.0015,-0.0022,-0.0024,-0.0026,-0.0018,-0.0019,-0.0002,-0.0002,-0.0002,-0.0002,0,0.0444,0.0459,0.047,0.0463,0.0456,0.0444,0.0402,0.0357,0.0306,0.026,0.0162,0.0132,0.0044,0.0031,0.0024,-0.0028,-0.0023,-0.0008,-0.0013,-0.0028,-0.0019,-0.002,-0.0002,-0.0002,-0.0002,-0.0002,0,0,0.0424,0.0449,0.0457,0.0442,0.0426,0.0402,0.0335,0.0261,0.0197,0.0134,0.0039,-0.0015,-0.003,-0.0066,-0.0078,-0.0077,-0.0066,-0.0059,-0.0058,-0.0045,-0.0056,-0.0078,-0.0081,-0.0051,-0.0051,-0.0052,-0.0038,0,0.0406,0.0398,0.0393,0.0349,0.0325,0.0296,0.0229,0.0161,0.0104,0.0018,-0.0013,-0.0082,-0.0067,-0.0097,-0.0097,-0.0087,-0.0074,-0.0072,-0.0051,-0.0051,-0.0063,-0.0085,-0.0054,-0.0039,-0.0039,-0.0039,-0.004,0,0.0375,0.0375,0.0337,0.0272,0.0255,0.0212,0.0101,0.0042,-0.0045,-0.0089,-0.0153,-0.0176,-0.0218,-0.0166,-0.0168,-0.0172,-0.0117,-0.0086,-0.0084,-0.0116,-0.0077,-0.0026,-0.0042,-0.0042,-0.0042,-0.0042,-0.0042,0,0.0337,0.0311,0.0279,0.0265,0.0203,0.0147,0.0093,0.0004,-0.0052,-0.0141,-0.0178,-0.0246,-0.0262,-0.0236,-0.0187,-0.0178,-0.0157,-0.013,-0.0095,-0.0095,-0.0078,-0.0076,-0.0092,-0.0092,-0.0092,-0.0092,-0.0092,0,0.029,0.026,0.0265,0.0249,0.0168,0.0122,0.0028,-0.0036,-0.0109,-0.0172,-0.0218,-0.0258,-0.0273,-0.027,-0.0217,-0.0183,-0.0178,-0.012,-0.0102,-0.0074,-0.0073,-0.0078,-0.0076,-0.0092,-0.0092,-0.0092,-0.0092,0,0.0242,0.0262,0.0222,0.018,0.016,0.0099,0.0018,-0.0046,-0.0102,-0.0176,-0.0199,-0.0268,-0.0282,-0.0279,-0.0237,-0.0215,-0.0173,-0.0136,-0.0121,-0.0099,-0.0107,-0.0106,-0.0133,-0.0134,-0.0134,-0.0135,-0.0135,0,0.0211,0.0205,0.0196,0.0174,0.0154,0.0084,0.0035,-0.0035,-0.0087,-0.0171,-0.0206,-0.0249,-0.0286,-0.0275,-0.025,-0.0202,-0.0162,-0.0151,-0.0131,-0.0137,-0.0116,-0.0113,-0.0111,-0.0137,-0.0137,-0.0137,-0.0137,0,0.0147,0.0175,0.0149,0.0133,0.0095,0.0036,-0.0031,-0.0056,-0.0136,-0.0161,-0.0233,-0.026,-0.0281,-0.0289,-0.0258,-0.02,-0.019,-0.0158,-0.0155,-0.0136,-0.0141,-0.0119,-0.0116,-0.014,-0.0139,-0.0139,-0.0139,0,0.0105,0.0084,0.0092,0.0059,0.0028,-0.0021,-0.005,-0.0113,-0.016,-0.023,-0.0238,-0.0271,-0.0293,-0.0282,-0.024,-0.0227,-0.0208,-0.0191,-0.0186,-0.0183,-0.0204,-0.0218,-0.0242,0,0,0,0,0,0.0056,0.0038,0.0007,-0.0031,-0.0052,-0.0069,-0.0107,-0.0127,-0.0154,-0.0211,-0.0234,-0.0252,-0.0262,-0.026,-0.0251,-0.0232,-0.0191,-0.0218,-0.0166,-0.0154,-0.0151,-0.0171,0,0,0,0,0,0,0.0015,-0.0004,-0.0009,-0.0079,-0.0113,-0.0161,-0.0174,-0.0195,-0.0226,-0.0241,-0.0243,-0.025,-0.0247,-0.0274,-0.0254,-0.0249,-0.0214,-0.0217,-0.0217,-0.0156,-0.0153,-0.015,-0.017,0,0,0,0,0]}]]